When you browse on this site, cookies collect data to enhance your experience and personalize the content and advertising you see.
Visit our Privacy Policy to learn more. By continuing to use the site, you agree to this use of cookies and data.
  • In Hungary
  • List of Countries
  • For 7 days
  • Water Temperature
  • Satellite Maps
  • Weather Map
  • News
  • Weather Widgets
  • user-avatar
    Login

    Hourly Weather Proszowice

    Today, 19 November, Monday

    Time Temperature Precipitation Wind Pressure Humidity
    00:00 -1°C° 0.1 mm 1 mps 747 mmHg 80%
    01:00 -2°C° 0 mm 2 mps 746 mmHg 83%
    02:00 -3°C° 0.1 mm 2 mps 746 mmHg 85%
    03:00 -3°C° 0.1 mm 2 mps 746 mmHg 86%
    04:00 -3°C° 0.1 mm 2 mps 746 mmHg 88%
    05:00 -3°C° 0 mm 2 mps 746 mmHg 88%
    06:00 -4°C° 0 mm 3 mps 746 mmHg 88%
    07:00 -4°C° 0 mm 3 mps 746 mmHg 87%
    08:00 -3°C° 0 mm 4 mps 746 mmHg 80%
    09:00 -2°C° 0 mm 4 mps 746 mmHg 73%
    10:00 -2°C° 0 mm 5 mps 746 mmHg 66%
    11:00 -1°C° 0 mm 5 mps 746 mmHg 64%
    12:00 0°C° 0 mm 5 mps 746 mmHg 61%
    13:00 0°C° 0 mm 5 mps 746 mmHg 55%
    14:00 -1°C° 0 mm 5 mps 746 mmHg 60%
    15:00 -1°C° 0 mm 5 mps 746 mmHg 64%
    16:00 -2°C° 0 mm 4 mps 746 mmHg 69%
    17:00 -2°C° 0 mm 5 mps 747 mmHg 71%
    18:00 -2°C° 0 mm 5 mps 747 mmHg 73%
    19:00 -2°C° 0 mm 5 mps 747 mmHg 75%
    20:00 -2°C° 0 mm 5 mps 747 mmHg 77%
    21:00 -2°C° 0 mm 5 mps 747 mmHg 79%
    22:00 -2°C° 0 mm 5 mps 748 mmHg 80%
    23:00 -2°C° 0 mm 5 mps 748 mmHg 81%

    Tomorrow, 20 November, Tuesday

    Time Temperature Precipitation Wind Pressure Humidity
    00:00 -2°C° 0 mm 5 mps 748 mmHg 82%
    01:00 -2°C° 0 mm 5 mps 748 mmHg 83%
    02:00 -2°C° 0 mm 5 mps 747 mmHg 84%
    03:00 -3°C° 0 mm 6 mps 747 mmHg 84%
    04:00 -3°C° 0 mm 6 mps 747 mmHg 84%
    05:00 -3°C° 0 mm 6 mps 747 mmHg 83%
    06:00 -3°C° 0 mm 6 mps 747 mmHg 83%
    07:00 -3°C° 0 mm 6 mps 747 mmHg 83%
    08:00 -3°C° 0 mm 6 mps 747 mmHg 80%
    09:00 -2°C° 0 mm 6 mps 746 mmHg 77%
    10:00 -2°C° 0 mm 7 mps 746 mmHg 73%
    11:00 -1°C° 0 mm 7 mps 746 mmHg 71%
    12:00 0°C° 0 mm 7 mps 745 mmHg 69%
    13:00 0°C° 0 mm 7 mps 745 mmHg 67%
    14:00 0°C° 0.1 mm 7 mps 745 mmHg 69%
    15:00 -1°C° 0.1 mm 7 mps 745 mmHg 72%
    16:00 -1°C° 0.1 mm 6 mps 744 mmHg 75%
    17:00 -1°C° 0.6 mm 6 mps 744 mmHg 78%
    18:00 -1°C° 0.6 mm 6 mps 744 mmHg 82%
    19:00 -2°C° 0.6 mm 6 mps 744 mmHg 85%
    20:00 -2°C° 0.5 mm 6 mps 744 mmHg 87%
    21:00 -2°C° 0.5 mm 6 mps 744 mmHg 89%
    22:00 -2°C° 0.5 mm 6 mps 745 mmHg 91%
    23:00 -1°C° 0.1 mm 5 mps 745 mmHg 91%

    Day after tomorrow, 21 November, Wednesday

    Time Temperature Precipitation Wind Pressure Humidity
    00:00 -1°C° 0.1 mm 5 mps 745 mmHg 91%
    01:00 -1°C° 0.1 mm 5 mps 745 mmHg 91%
    02:00 -1°C° 0 mm 5 mps 745 mmHg 92%
    03:00 -1°C° 0 mm 4 mps 745 mmHg 92%
    04:00 -1°C° 0 mm 4 mps 745 mmHg 93%
    05:00 -1°C° 0 mm 4 mps 745 mmHg 92%
    06:00 -1°C° 0 mm 4 mps 745 mmHg 92%
    07:00 -1°C° 0 mm 4 mps 745 mmHg 92%
    08:00 -1°C° 0 mm 4 mps 746 mmHg 91%
    09:00 -1°C° 0 mm 4 mps 746 mmHg 90%
    10:00 0°C° 0 mm 4 mps 746 mmHg 89%
    11:00 0°C° 0 mm 5 mps 746 mmHg 89%
    12:00 0°C° 0 mm 5 mps 746 mmHg 88%
    13:00 0°C° 0 mm 5 mps 746 mmHg 88%
    14:00 0°C° 0 mm 5 mps 747 mmHg 88%
    15:00 -1°C° 0 mm 4 mps 747 mmHg 89%
    16:00 -1°C° 0 mm 4 mps 747 mmHg 89%
    17:00 -1°C° 0 mm 4 mps 747 mmHg 89%
    18:00 -1°C° 0 mm 4 mps 748 mmHg 88%
    19:00 -1°C° 0 mm 4 mps 748 mmHg 88%
    20:00 -1°C° 0 mm 4 mps 748 mmHg 88%
    21:00 -1°C° 0 mm 4 mps 748 mmHg 88%
    22:00 -2°C° 0 mm 4 mps 749 mmHg 89%
    23:00 -2°C° 0 mm 4 mps 749 mmHg 89%

    22 November, Thursday

    Time Temperature Precipitation Wind Pressure Humidity
    00:00 -2°C° 0 mm 4 mps 749 mmHg 89%
    01:00 -2°C° 0 mm 4 mps 749 mmHg 90%
    02:00 -2°C° 0 mm 4 mps 749 mmHg 90%
    03:00 -2°C° 0 mm 3 mps 749 mmHg 90%
    04:00 -2°C° 0 mm 3 mps 749 mmHg 90%
    05:00 -2°C° 0 mm 3 mps 749 mmHg 90%
    06:00 -2°C° 0 mm 3 mps 749 mmHg 91%
    07:00 -2°C° 0 mm 3 mps 750 mmHg 91%
    08:00 -2°C° 0 mm 3 mps 750 mmHg 89%
    09:00 -1°C° 0 mm 3 mps 750 mmHg 87%
    10:00 0°C° 0 mm 3 mps 750 mmHg 85%
    11:00 0°C° 0 mm 3 mps 750 mmHg 83%
    12:00 +1°C° 0 mm 3 mps 750 mmHg 82%
    13:00 +1°C° 0 mm 3 mps 750 mmHg 80%
    14:00 +1°C° 0 mm 3 mps 750 mmHg 83%
    15:00 +1°C° 0 mm 2 mps 750 mmHg 85%
    16:00 -1°C° 0 mm 2 mps 750 mmHg 88%
    17:00 -1°C° 0 mm 2 mps 750 mmHg 89%
    18:00 -1°C° 0 mm 2 mps 750 mmHg 89%
    19:00 -2°C° 0 mm 2 mps 751 mmHg 90%
    20:00 -2°C° 0 mm 2 mps 751 mmHg 90%
    21:00 -2°C° 0 mm 2 mps 751 mmHg 90%
    22:00 -2°C° 0 mm 2 mps 751 mmHg 90%
    23:00 -2°C° 0 mm 2 mps 751 mmHg 90%

    23 November, Friday

    Time Temperature Precipitation Wind Pressure Humidity
    00:00 -3°C° 0 mm 2 mps 751 mmHg 91%
    01:00 -3°C° 0 mm 2 mps 752 mmHg 91%
    02:00 -3°C° 0 mm 2 mps 752 mmHg 91%
    03:00 -3°C° 0 mm 2 mps 752 mmHg 91%
    04:00 -3°C° 0 mm 2 mps 752 mmHg 91%
    05:00 -3°C° 0 mm 2 mps 752 mmHg 91%
    06:00 -3°C° 0 mm 2 mps 752 mmHg 91%
    07:00 -3°C° 0 mm 2 mps 752 mmHg 91%
    08:00 -2°C° 0 mm 2 mps 752 mmHg 88%
    09:00 +1°C° 0 mm 2 mps 752 mmHg 84%
    10:00 +2°C° 0 mm 2 mps 753 mmHg 81%
    11:00 +3°C° 0 mm 2 mps 752 mmHg 80%
    12:00 +4°C° 0 mm 2 mps 752 mmHg 79%
    13:00 +4°C° 0 mm 2 mps 752 mmHg 78%
    14:00 +3°C° 0 mm 2 mps 752 mmHg 82%
    15:00 +2°C° 0 mm 2 mps 752 mmHg 87%
    16:00 +1°C° 0 mm 2 mps 752 mmHg 91%
    17:00 +2°C° 0 mm 1 mps 752 mmHg 91%
    18:00 +2°C° 0 mm 1 mps 751 mmHg 92%
    19:00 +2°C° 0 mm 1 mps 751 mmHg 92%
    20:00 +2°C° 0 mm 1 mps 751 mmHg 92%
    21:00 +2°C° 0 mm 1 mps 751 mmHg 92%
    22:00 +2°C° 0 mm 1 mps 751 mmHg 92%
    23:00 +2°C° 0 mm 1 mps 751 mmHg 92%

    24 November, Saturday

    Time Temperature Precipitation Wind Pressure Humidity
    00:00 +2°C° 0 mm 1 mps 750 mmHg 92%
    01:00 +2°C° 0 mm 1 mps 750 mmHg 91%
    02:00 +2°C° 0 mm 1 mps 749 mmHg 91%
    03:00 +2°C° 0 mm 1 mps 749 mmHg 91%
    04:00 +2°C° 0 mm 1 mps 749 mmHg 91%
    05:00 +2°C° 0 mm 1 mps 748 mmHg 91%
    06:00 +2°C° 0 mm 1 mps 748 mmHg 91%
    07:00 +2°C° 0 mm 1 mps 748 mmHg 91%
    08:00 +4°C° 0 mm 1 mps 748 mmHg 87%
    09:00 +4°C° 0 mm 2 mps 748 mmHg 84%
    10:00 +5°C° 0 mm 2 mps 747 mmHg 81%
    11:00 +6°C° 0 mm 2 mps 747 mmHg 79%
    12:00 +7°C° 0 mm 2 mps 746 mmHg 77%
    13:00 +8°C° 0 mm 2 mps 746 mmHg 75%
    14:00 +7°C° 0 mm 2 mps 745 mmHg 79%
    15:00 +5°C° 0 mm 2 mps 745 mmHg 83%
    16:00 +4°C° 0 mm 2 mps 744 mmHg 87%
    17:00 +4°C° 0.1 mm 2 mps 744 mmHg 88%
    18:00 +4°C° 0.1 mm 2 mps 744 mmHg 88%
    19:00 +4°C° 0.1 mm 2 mps 743 mmHg 88%
    20:00 +4°C° 1.2 mm 2 mps 743 mmHg 90%
    21:00 +4°C° 1.2 mm 2 mps 743 mmHg 91%
    22:00 +5°C° 1.2 mm 2 mps 742 mmHg 93%
    23:00 +5°C° 0.8 mm 2 mps 742 mmHg 93%
    Show more